TimeCEST,TemperatureF,Dew PointF,Humidity,Sea Level PressureIn,VisibilityMPH,Wind Direction,Wind SpeedMPH,Gust SpeedMPH,PrecipitationIn,Events,Conditions,WindDirDegrees,DateUTC
12:00 AM,53.6,51.8,94,30.01,6.2,WSW,8.1,-,N/A,Rain,Rain,250,2013-09-13 22:00:00
12:30 AM,53.6,51.8,94,30.01,6.2,WSW,12.7,-,N/A,Rain,Light Rain,250,2013-09-13 22:30:00
1:00 AM,53.6,51.8,94,29.98,6.2,West,12.7,-,N/A,Rain,Light Rain,260,2013-09-13 23:00:00
2:00 AM,53.6,51.8,94,29.98,4.3,West,15.0,-,N/A,Rain,Light Rain,270,2013-09-14 00:00:00
3:00 AM,53.6,51.8,94,29.95,4.3,West,17.3,-,N/A,Rain,Light Rain,270,2013-09-14 01:00:00
4:00 AM,55.4,51.8,88,29.92,6.2,West,16.1,-,N/A,,Overcast,280,2013-09-14 02:00:00
5:00 AM,55.4,51.8,88,29.92,6.2,West,16.1,-,N/A,,Overcast,280,2013-09-14 03:00:00
6:00 AM,55.4,51.8,88,29.92,6.2,West,17.3,-,N/A,Rain,Light Rain,280,2013-09-14 04:00:00
7:00 AM,55.4,51.8,88,29.92,6.2,West,17.3,-,N/A,Rain,Light Rain,280,2013-09-14 05:00:00
8:00 AM,55.4,51.8,88,29.92,6.2,West,17.3,-,N/A,Rain,Light Rain,280,2013-09-14 06:00:00
9:00 AM,55.4,51.8,88,29.92,6.2,West,17.3,-,N/A,Rain,Light Rain,280,2013-09-14 07:00:00
10:00 AM,55.4,51.8,88,29.92,6.2,West,17.3,-,N/A,,Overcast,280,2013-09-14 08:00:00
11:00 AM,55.4,51.8,88,29.92,6.2,West,16.1,-,N/A,Rain,Light Rain,280,2013-09-14 09:00:00
12:00 PM,57.2,51.8,82,29.95,6.2,West,13.8,-,N/A,,Overcast,280,2013-09-14 10:00:00
1:00 PM,59.0,53.6,82,29.95,6.2,West,13.8,-,N/A,,Overcast,280,2013-09-14 11:00:00
2:00 PM,60.8,53.6,77,29.95,6.2,West,8.1,-,N/A,,Overcast,280,2013-09-14 12:00:00
3:00 PM,60.8,53.6,77,29.95,-9999.0,West,5.8,-,N/A,,Clear,270,2013-09-14 13:00:00
4:00 PM,64.4,53.6,68,29.92,-9999.0,WNW,4.6,-,N/A,,Clear,300,2013-09-14 14:00:00
5:00 PM,66.2,51.8,60,29.92,6.2,Variable,3.5,-,N/A,,Partly Cloudy,0,2013-09-14 15:00:00
6:00 PM,66.2,53.6,64,29.92,-9999.0,WSW,3.5,-,N/A,,Clear,250,2013-09-14 16:00:00
7:00 PM,60.8,55.4,82,29.92,-9999.0,ESE,1.2,-,N/A,,Clear,110,2013-09-14 17:00:00
8:00 PM,57.2,53.6,88,29.92,-9999.0,SE,3.5,-,N/A,,Clear,130,2013-09-14 18:00:00
9:00 PM,55.4,53.6,94,29.92,-9999.0,SSW,1.2,-,N/A,,Clear,200,2013-09-14 19:00:00
10:00 PM,55.4,51.8,88,29.95,-9999.0,West,2.3,-,N/A,,Clear,280,2013-09-14 20:00:00
11:00 PM,51.8,50.0,94,29.95,-9999.0,South,1.2,-,N/A,,Clear,190,2013-09-14 21:00:00